Location: Munkebjergskolens Observatorium
(55.3864°N, 10.3987°E)
Time: 09:14:15
(UTC+01:00)

COSMOS 2251 DEB - Pass Details

Date: 12 December 2023
Orbit: 609 x 851 km, 74.0° (Epoch: 02 March)

Event Time Altitude Azimuth Distance (km) Brightness Sun altitude
Exits shadow 07:27:19 - 333° (NNW) 2,912 ? -8.8°
Reaches altitude 10° 07:28:30 10° 335° (NNW) 2,471 ? -8.7°
Maximum altitude 07:34:12 68° 59° (ENE) 922 ? -8.0°
Drops below altitude 10° 07:39:55 10° 142° (SE) 2,482 ? -7.3°
Sets 07:42:24 0° 145° (SE) 3,417 ? -7.0°
